Satellite: COMPASS
Catalog number: 32787
Epoch time:      12186.66699409
Element set:    0346
Inclination:      097.7987 deg
RA of node:       247.6151 deg
Eccentricity:    0.0015286
Arg of perigee:   008.2676 deg
Mean anomaly:     351.8821 deg
Mean motion:   14.84072418 rev/day
Decay rate:      1.704e-05 rev/day^2
Epoch rev:           22640
Checksum:              332

Satellite: AAUSAT2
Catalog number: 32788
Epoch time:      12186.70020925
Element set:    0339
Inclination:      097.8025 deg
RA of node:       248.0393 deg
Eccentricity:    0.0015069
Arg of perigee:   009.5843 deg
Mean anomaly:     350.5650 deg
Mean motion:   14.84399808 rev/day
Decay rate:      1.611e-05 rev/day^2
Epoch rev:           22643
Checksum:              310

Satellite: DO-64
Catalog number: 32789
Epoch time:      12186.72986800
Element set:    0354
Inclination:      097.8126 deg
RA of node:       250.1567 deg
Eccentricity:    0.0014442
Arg of perigee:   005.2868 deg
Mean anomaly:     354.8505 deg
Mean motion:   14.85933700 rev/day
Decay rate:      2.755e-05 rev/day^2
Epoch rev:           22648
Checksum:              332

Satellite: CO-66
Catalog number: 32791
Epoch time:      12186.66354976
Element set:    0337
Inclination:      097.8003 deg
RA of node:       247.3399 deg
Eccentricity:    0.0015943
Arg of perigee:   007.6553 deg
Mean anomaly:     352.4910 deg
Mean motion:   14.83475926 rev/day
Decay rate:      1.225e-05 rev/day^2
Epoch rev:           22633
Checksum:              331

Satellite: RS-30
Catalog number: 32953
Epoch time:      12186.75576287
Element set:    0929
Inclination:      082.5036 deg
RA of node:       284.2138 deg
Eccentricity:    0.0017467
Arg of perigee:   269.0731 deg
Mean anomaly:     090.8348 deg
Mean motion:   12.43025234 rev/day
Decay rate:        1.0e-07 rev/day^2
Epoch rev:           18674
Checksum:              311

Satellite: TACSAT-3
Catalog number: 35001
Epoch time:      12121.72616188
Element set:    0001
Inclination:      040.4259 deg
RA of node:       351.8840 deg
Eccentricity:    0.0007146
Arg of perigee:   275.2650 deg
Mean anomaly:     085.0693 deg
Mean motion:   16.45157000 rev/day
Decay rate:  1.5204951e-01 rev/day^2
Epoch rev:           16699
Checksum:              280

Satellite: PHARMSAT
Catalog number: 35002
Epoch time:      12186.73174606
Element set:    0963
Inclination:      040.4559 deg
RA of node:       314.4810 deg
Eccentricity:    0.0011347
Arg of perigee:   010.8413 deg
Mean anomaly:     349.2653 deg
Mean motion:   15.90324729 rev/day
Decay rate:    1.69294e-03 rev/day^2
Epoch rev:           17711
Checksum:              289

Satellite: METEOR-M
Catalog number: 35865
Epoch time:      12186.88244664
Element set:    0559
Inclination:      098.6534 deg
RA of node:       240.8755 deg
Eccentricity:    0.0002884
Arg of perigee:   020.0691 deg
Mean anomaly:     340.0599 deg
Mean motion:   14.21864846 rev/day
Decay rate:       -3.4e-07 rev/day^2
Epoch rev:           14511
Checksum:              317

Satellite: RS-38
Catalog number: 35869
Epoch time:      12186.83061684
Element set:    0566
Inclination:      098.6491 deg
RA of node:       240.8177 deg
Eccentricity:    0.0004877
Arg of perigee:   011.7583 deg
Mean anomaly:     348.3707 deg
Mean motion:   14.22076416 rev/day
Decay rate:       -1.2e-07 rev/day^2
Epoch rev:           14512
Checksum:              323

Satellite: JUGNU
Catalog number: 37839
Epoch time:      12186.55449561
Element set:    0181
Inclination:      019.9608 deg
RA of node:       253.0128 deg
Eccentricity:    0.0020313
Arg of perigee:   053.9810 deg
Mean anomaly:     306.2457 deg
Mean motion:   14.12064271 rev/day
Decay rate:       6.19e-06 rev/day^2
Epoch rev:           03770
Checksum:              283

Satellite: SRMSAT
Catalog number: 37841
Epoch time:      12186.49110119
Element set:    0180
Inclination:      019.9706 deg
RA of node:       258.6152 deg
Eccentricity:    0.0012206
Arg of perigee:   019.4821 deg
Mean anomaly:     340.6076 deg
Mean motion:   14.10147455 rev/day
Decay rate:       2.64e-06 rev/day^2
Epoch rev:           03764
Checksum:              272

Satellite: RAX-2
Catalog number: 37853
Epoch time:      12186.96482553
Element set:    0223
Inclination:      101.7117 deg
RA of node:       235.2457 deg
Eccentricity:    0.0246577
Arg of perigee:   300.2428 deg
Mean anomaly:     057.4569 deg
Mean motion:   14.80144073 rev/day
Decay rate:      2.187e-05 rev/day^2
Epoch rev:           03703
Checksum:              299

Satellite: AUBIESAT
Catalog number: 37854
Epoch time:      12186.84733159
Element set:    0222
Inclination:      101.7138 deg
RA of node:       235.3477 deg
Eccentricity:    0.0246843
Arg of perigee:   299.8176 deg
Mean anomaly:     057.8689 deg
Mean motion:   14.80538594 rev/day
Decay rate:      2.486e-05 rev/day^2
Epoch rev:           03700
Checksum:              340

Satellite: HRBE
Catalog number: 37855
Epoch time:      12186.86273953
Element set:    0230
Inclination:      101.7148 deg
RA of node:       235.3203 deg
Eccentricity:    0.0247558
Arg of perigee:   299.9505 deg
Mean anomaly:     057.7309 deg
Mean motion:   14.80386981 rev/day
Decay rate:      2.179e-05 rev/day^2
Epoch rev:           03700
Checksum:              320

Satellite: RS-39
Catalog number: 38051
Epoch time:      12186.81575648
Element set:    0484
Inclination:      051.6428 deg
RA of node:       075.8203 deg
Eccentricity:    0.0014712
Arg of perigee:   098.8497 deg
Mean anomaly:     305.5395 deg
Mean motion:   15.24555370 rev/day
Decay rate:      5.698e-05 rev/day^2
Epoch rev:           02466
Checksum:              340

Satellite: E-STAR
Catalog number: 38079
Epoch time:      12186.62178177
Element set:    0324
Inclination:      069.4917 deg
RA of node:       275.8020 deg
Eccentricity:    0.0741209
Arg of perigee:   225.9949 deg
Mean anomaly:     127.7757 deg
Mean motion:   14.15683396 rev/day
Decay rate:     3.4855e-04 rev/day^2
Epoch rev:           02005
Checksum:              338

Satellite: GOLIAT
Catalog number: 38085
Epoch time:      12186.34262177
Element set:    0299
Inclination:      069.4970 deg
RA of node:       276.7597 deg
Eccentricity:    0.0746195
Arg of perigee:   226.6051 deg
Mean anomaly:     127.0445 deg
Mean motion:   14.14666221 rev/day
Decay rate:     3.3210e-04 rev/day^2
Epoch rev:           02000
Checksum:              300

Satellite: HORYU-2
Catalog number: 38340
Epoch time:      12186.25201215
Element set:    0047
Inclination:      098.1748 deg
RA of node:       126.0181 deg
Eccentricity:    0.0011820
Arg of perigee:   278.5388 deg
Mean anomaly:     081.4492 deg
Mean motion:   14.70012326 rev/day
Decay rate:       9.35e-06 rev/day^2
Epoch rev:           00698
Checksum:              280

/EX




More information about the Keps mailing list